Flag for U.S.A. Weather past 2 weeks in Simi Valley, California, U.S.A.

Now
76 °F

Sunny.


Feels Like: 78 °F
Forecast: 59 / 80 °F
Wind: 10 mph from Southeast

Location: Van Nuys Airport

Current Time: Jul 5, 2015 at 6:50:55 PM

Latest Report: Jul 5, 2015 at 5:51 PM


Visibility: 10 mi

Pressure: 29.89 "Hg

Humidity: 54%

Dew point: 58 °F

Location of Simi ValleyLocation

Historic Weather in Simi Valley — Graph

°F

Simi Valley temperature yesterday

Maximum temperature yesterday: 84 °F (at 1:51 PM)
Minimum temperature yesterday: 62 °F (at 5:51 AM)
Average temperature yesterday: 72 °F

Past Weeks' High & Low Weather Summary

 TemperatureHumidityPressure
High101 °F (Jun 28, 1:51 PM)87% (Jul 5, 3:51 AM)30.01 "Hg (Jul 5, 3:51 AM)
Low62 °F (Jul 4, 5:51 AM)16% (Jun 24, 4:51 PM)29.78 "Hg (Jun 20, 5:51 PM)
Average78 °F48%29.88 "Hg
* Reported Jun 20 5:51 PM — Jul 5 5:51 PM, Simi Valley, Weather by CustomWeather, © 2015

Note: Actual official high and low records may vary slightly from our data, if they occured in-between our weather recording intervals... More about our weather records

Advertising

Simi Valley weather history for previous 24 hours

 ConditionsComfort  
Time TempWeatherWind HumidityBarometerVisibility
5:51 PM
Sun, Jul 5
76 °FSunny.10 mph54%29.89 "Hg10 mi
4:51 PM79 °FSunny.10 mph48%29.90 "Hg10 mi
3:51 PM80 °FSunny.12 mph49%29.90 "Hg10 mi
2:51 PM81 °FSunny.8 mph47%29.91 "Hg10 mi
1:51 PM80 °FSunny.7 mph49%29.93 "Hg10 mi
12:51 PM77 °FSunny.N/A54%29.95 "Hg9 mi
11:51 AM75 °FSunny.6 mph58%29.97 "Hg8 mi
10:58 AM70 °FPartly sunny.No wind68%29.99 "Hg5 mi
9:51 AM66 °FOvercast.3 mph75%29.96 "Hg4 mi
8:51 AM65 °FOvercast.3 mph78%29.96 "Hg3 mi
7:51 AM64 °FLow clouds.3 mph81%29.96 "Hg4 mi
6:51 AM63 °FLow clouds.5 mph84%29.94 "Hg4 mi
5:51 AM63 °FLow clouds.3 mph84%29.93 "Hg5 mi
4:51 AM63 °FLow clouds.5 mph84%29.91 "Hg6 mi
3:51 AM63 °FLow clouds.3 mph87%29.91 "Hg7 mi
2:51 AM63 °FLow clouds.5 mph84%29.91 "Hg7 mi
1:51 AM62 °FPassing clouds.6 mph86%29.91 "Hg9 mi
12:51 AM63 °FClear.3 mph84%29.91 "Hg10 mi
11:51 PM
Sat, Jul 4
64 °FClear.5 mph81%29.91 "Hg10 mi
10:51 PM65 °FClear.7 mph78%29.91 "Hg10 mi
9:51 PM67 °FClear.6 mph73%29.89 "Hg10 mi
8:51 PM69 °FSunny.8 mph68%29.87 "Hg10 mi
7:51 PM72 °FSunny.8 mph59%29.85 "Hg10 mi
6:51 PM76 °FSunny.10 mph52%29.82 "Hg10 mi
Weather by CustomWeather, © 2015

See weather overviewHow to use our weather pages